Lapse_Rate
6.5 6.4 6.6 6.3 6.0 5.9 5.9 6.0 5.9 6.0 6.1 5.9 6.4 6.1 6.1 5.7 5.3 5.2 4.9 5.2 5.4 5.3
6.7 6.7 6.5 6.3 5.8 6.1 6.1 5.9 6.0 6.2 6.2 6.4 6.1 5.9 5.8 5.4 4.9 4.8 4.8 5.1 5.1 5.3
6.6 6.5 6.4 6.5 6.4 6.3 6.3 6.3 6.4 6.4 6.3 6.2 6.0 5.9 5.8 5.5 4.8 4.7 4.8 4.8 4.7 4.8
6.7 6.9 6.8 6.7 6.6 6.5 6.4 6.3 6.4 6.4 6.3 6.0 5.9 5.8 5.6 5.1 5.0 4.8 4.7 4.9 5.0 4.8
6.8 6.7 6.7 6.7 6.6 6.5 6.1 6.2 6.0 5.7 5.7 5.7 5.9 5.8 5.2 5.1 4.9 4.7 4.9 5.2 5.1 4.9
6.7 6.6 6.5 6.4 6.2 5.9 6.0 6.0 6.0 5.9 5.9 6.1 5.8 5.4 5.3 5.0 4.9 5.0 5.2 5.3 5.1 5.1
6.7 6.6 6.5 6.1 6.0 6.0 6.0 6.0 5.8 5.8 5.9 5.7 5.1 5.1 5.0 4.8 5.4 5.5 5.5 5.2 5.3 5.1
6.3 6.3 6.1 6.3 6.2 6.2 6.0 6.0 5.6 5.8 5.9 5.1 5.0 5.2 5.0 5.5 5.7 5.5 5.7 5.7 5.4 5.6
6.3 5.9 6.0 5.9 6.1 6.3 6.1 6.2 6.1 6.1 5.1 5.4 5.7 5.3 5.5 5.7 5.7 6.0 5.9 5.6 6.1 6.1
6.3 6.1 5.8 6.2 6.2 6.4 6.4 6.1 5.7 4.9 5.6 5.5 5.3 5.4 5.9 5.9 6.0 6.4 6.5 6.6 6.4 6.1
6.4 6.5 6.5 6.6 6.4 6.4 6.3 5.5 5.3 5.5 5.7 5.6 5.5 6.0 6.0 6.2 6.4 6.8 6.9 6.8 6.7 6.5
6.5 6.5 6.5 6.4 6.5 6.3 5.8 5.4 5.5 5.7 5.7 5.6 5.8 5.9 6.3 6.5 6.9 7.1 7.0 7.0 6.8 6.7
6.5 6.4 6.2 6.0 6.2 5.7 5.5 5.7 5.9 5.7 5.6 5.6 6.1 6.5 6.9 7.1 7.1 7.0 7.0 6.9 6.9 6.9
6.5 6.2 6.1 5.9 5.4 5.7 5.8 5.9 5.7 5.8 5.7 5.9 6.4 7.0 7.2 7.3 7.4 7.2 7.0 6.9 6.9 6.8
Wind_Speed
11 8 7 6 6 4 4 4 7 9 6 4 5 7 8 3 2 3 3 5 4 3
11 12 10 9 7 5 5 6 10 10 9 7 6 6 7 3 3 4 3 4 4 3
10 9 10 10 10 10 9 10 9 7 8 7 6 6 5 3 3 3 2 3 4 3
10 9 9 9 9 9 8 8 7 6 6 5 5 4 4 4 3 3 3 3 5 5
9 10 10 10 10 9 9 9 7 7 5 5 4 3 6 6 5 6 6 6 5 5
10 12 11 10 10 9 8 7 7 6 6 4 5 5 6 6 6 7 7 7 6 6
13 13 11 11 10 10 8 7 6 5 5 6 6 6 6 6 6 7 6 6 6 5
11 9 9 8 7 6 6 5 4 2 4 5 5 5 7 7 7 6 6 4 3 3
9 7 6 7 7 6 4 3 2 3 5 6 6 10 12 10 8 6 6 6 6 5
8 9 11 10 8 6 5 2 4 5 6 7 7 11 12 13 6 7 7 6 5 4
11 12 10 10 7 5 3 1 5 6 6 6 6 10 11 14 7 6 7 7 7 6
13 12 8 4 4 2 2 5 4 4 6 6 6 8 10 10 6 6 6 5 6 6
9 7 7 4 1 2 5 3 4 5 5 7 7 7 11 9 3 5 4 5 6 11
6 5 2 1 3 4 5 4 5 5 6 7 7 7 12 14 6 6 5 5 4 5
Wind_Direction
156 161 162 146 147 147 132 136 131 111 107 138 181 189 201 204 207 204 211 209 219 213
155 161 158 146 143 146 148 146 151 146 159 168 187 187 197 210 228 203 211 213 222 201
166 160 154 148 154 162 161 157 160 180 154 171 191 183 179 195 211 194 227 220 192 192
162 149 151 156 159 159 165 164 168 171 161 184 199 180 180 182 196 188 202 198 199 218
159 158 165 168 171 171 171 173 167 172 172 188 198 213 197 202 191 194 194 207 208 219
167 171 178 179 178 175 167 170 171 172 185 183 220 216 218 219 214 203 199 197 206 214
183 180 186 176 180 177 169 164 175 189 192 223 224 219 222 214 211 206 200 200 206 220
184 178 175 175 164 137 140 180 167 170 255 254 247 239 222 202 204 201 197 186 200 222
172 164 135 117 112 115 117 96 160 251 257 267 258 241 224 196 191 186 180 194 211 205
132 117 117 109 102 100 100 65 350 294 282 275 271 256 238 203 174 179 189 196 190 214
106 105 108 112 110 109 76 291 256 272 277 275 273 265 242 191 169 174 196 195 194 198
115 111 102 87 112 109 248 253 263 267 279 287 292 278 220 171 170 183 200 204 193 197
98 107 109 114 168 242 249 265 275 284 284 281 281 268 215 188 157 186 203 213 213 221
82 84 129 174 236 261 260 265 284 288 285 282 266 263 218 202 186 203 198 210 215 219